Погода в Булгане

Монголия     48°48′17″N   103°31′49″E
темп.,
°C
ветер,
м/с
пор.,
м/с
влажн.,
%
обл.,
%
осадки,
мм/ч
давл.,
гПа
погр.,
м
10 августа, ср
ср1023:00+14зюз1192100 1.2 101011
02:00+14з1193100 1.4 100912
05:00+12зсз11905 0.0 100710
08:00+14юз118237 0.0 1008118
11:00+18ююз226714 0.1 1006738
14:00+21з336211 1.4 10041209
17:00+22з25550 0.8 10031433
20:00+18с22715 1.2 100413
11 августа, чт
чт1123:00+14сз3382100 0.3 100725
02:00+13сз3387100 0.3 100933
05:00+12ссз3388100 0.0 101032
08:00+14з1181100 0.0 1011128
11:00+17юз1165100 0.0 1011712
14:00+19ююз2358100 0.0 10091126
17:00+21з3553100 0.0 10081310
20:00+17юз227095 0.1 100811
12 августа, пт
пт1223:00+15ссз1174100 0.0 100911
02:00+13з1178100 0.0 100911
05:00+13с118198 0.0 101010
08:00+14всв117717 0.0 1010100
11:00+18вюв22685 0.1 1009616
14:00+21вюв32585 1.1 10061065
17:00+21св1262100 3.4 1004315
20:00+17с1178100 4.1 100511
13 августа, сб
сб1323:00+13ссв1190100 1.6 100610
02:00+13зсз1191100 1.9 100610
05:00+12зсз1192100 0.8 100511
08:00+14ссв1188100 0.8 1005130
11:00+18в2276100 0.1 1004551
14:00+21ссв025474 1.4 10031248
17:00+22ссз3450100 0.1 10021650
20:00+16ссв227991 0.6 100423
14 августа, вс
вс1423:00+13с3390100 2.3 100747
02:00+12ссв2292100 2.4 100832
05:00+11с2289100 0.0 100825
08:00+12ссв128162 0.0 1010125
11:00+16в125927 0.0 1010852
14:00+19ююв22526 0.0 10081425
17:00+20ю335896 0.1 1007769
20:00+16ююв11700 0.1 100811